Location: Ernez
(36.4595°N, 29.8755°E)
Time: 08:13:44
(UTC+00:00)

YAOGAN 1 - Pass Details

Date: 13 November 2025
Orbit: 605 x 607 km, 97.8° (Epoch: 05 December)

Event Time Altitude Azimuth Distance (km) Brightness Sun altitude
Rises 15:33:23 0° 129° (SE) 2,854 5.6 -8.4°
Reaches altitude 10° 15:36:06 10° 111° (ESE) 1,954 4.6 -9.0°
Maximum altitude 15:38:59 18° 68° (ENE) 1,503 3.9 -9.5°
Drops below altitude 10° 15:41:52 10° 25° (NNE) 1,962 4.8 -10.1°
Sets 15:44:36 0° 7° (N) 2,870 5.8 -10.6°
